Regional Weather Roundup
Issued by NWS

Home | Current Version | Previous Version | Graphics & Text | Print | Product List | Glossary On
Versions: 1 2 3 4 5 6 7 8 9 10 11 12 13 14 15 16 17 18 19 20 21 22 23 24 25 26 27 28 29 30 31 32 33 34 35 36 37 38 39 40 41 42 43 44 45 46 47
000
ASUS45 KTFX 290210
RWRMT
MONTANA REGIONAL WEATHER ROUNDUP
NATIONAL WEATHER SERVICE GREAT FALLS MT
800 PM MDT TUE JUL 28 2015

NOTE: "FAIR" INDICATES FEW OR NO CLOUDS BELOW 12000 FEET WITH NO
SIGNIFICANT WEATHER AND/OR OBSTRUCTIONS TO VISIBILITY.

MTZ001>007-043-290300-
WEST OF THE DIVIDE

CITY           SKY/WX    TMP DP  RH WIND       PRES   REMARKS
KALISPELL      MOCLDY    71  39  31 W9        30.17R
MISSOULA       CLOUDY    72  38  29 W13       30.21R
BUTTE          CLEAR     62  33  33 W7        30.29R
MULLAN PASS    SUNNY     56  37  49 CALM      30.33S
DEER LODGE       N/A     64  37  36 NW7       30.29R
EUREKA           N/A     73  43  33 SW9       30.15S
HAMILTON         N/A     70  39  32 NW3       30.23R
LIBBY            N/A     72  43  35 W5        30.19R
PLAINS           N/A     74  41  30 NW3       30.19S
RONAN            N/A     70  42  36 W6        30.23R
$$

MTZ008-052>055-290300-
SOUTHWEST MONTANA

CITY           SKY/WX    TMP DP  RH WIND       PRES   REMARKS
BOZEMAN        MOCLDY    68  33  27 W10       30.24R
DILLON         CLEAR     61  40  45 SW9       30.28R
W YELLOWSTONE  PTCLDY    55  32  41 CALM      30.37R
TWIN BRIDGES     N/A     65  41  41 SE5       30.23R
$$

MTZ009-010-012-014-046-048-049-054-290300-
EAST SLOPES AND CENTRAL MONTANA

CITY           SKY/WX    TMP DP  RH WIND       PRES   REMARKS
CUT BANK       SUNNY     68  36  30 W22G30    30.13R
GREAT FALLS    CLEAR     71  32  23 W16G23    30.13R
HELENA         CLEAR     72  31  22 W20       30.18S
CONRAD           N/A     71  40  32 W12       30.14R
$$

MTZ011-013-016-021-045-047-050-051-290300-
NORTH CENTRAL MONTANA

CITY           SKY/WX    TMP DP  RH WIND       PRES   REMARKS
HAVRE          PTCLDY    69  48  47 W8        30.02R
LEWISTOWN      PTCLDY    68  37  32 W12G20    30.15R
CHINOOK          N/A     72  45  37 W9        30.00R
FORT BENTON      N/A     72  37  28 W10       30.09R
$$

MTZ017>020-022>027-061-062-290300-
NORTHEAST MONTANA

CITY           SKY/WX    TMP DP  RH WIND       PRES   REMARKS
GLASGOW        MOCLDY    65  49  56 NW12      29.95R
JORDAN           N/A     71  42  35 W17G23    30.02R
SIDNEY         CLOUDY    57  50  77 W13       29.91R
WOLF POINT     CLOUDY    69  46  43 W20G26    29.93R
MALTA            N/A    N/A N/A N/A MISG      29.96
PLENTYWOOD       N/A     55  52  88 W20G28    29.84R
POPLAR           N/A     61  55  82 N3        29.92R
SCOBEY           N/A     55  49  80 NW14      29.90R
$$

MTZ028>42-056>058-290300-
SOUTHCENTRAL AND SOUTHEAST MONTANA

CITY           SKY/WX    TMP DP  RH WIND       PRES   REMARKS
BAKER          PTCLDY    68  39  34 W23G36    30.03R
BILLINGS       PTCLDY    71  35  26 W20       30.16R
LIVINGSTON     CLEAR     67  35  30 W15       30.23R
MILES CITY     PTCLDY    71  38  29 NW21G26   30.05R
EKALAKA          N/A     67  32  27 W20       30.06R
FORSYTH          N/A     72  37  28 W9        30.08R
LAUREL           N/A     71  32  23 SW15      30.15R
ROUNDUP          N/A     70  35  27 NW3       30.04R
$$

REGIONAL REPORTS...DAKOTAS

CITY           SKY/WX    TMP DP  RH WIND       PRES   REMARKS
WILLISTON      LGT RAIN  57  50  77 W29G41    29.85R
MINOT          LGT RAIN  58  54  86 W29G43    29.54R FOG
DICKINSON      PTCLDY    63  46  54 NW18G26   29.91R
BEACH          FAIR      64  41  42 W21G28    29.98R
CROSBY         LGT RAIN  55  55 100 NW40G55   29.71R
BISMARCK       CLEAR     66  46  48 W30G52    29.85R
GRAND FORKS    PTCLDY    68  51  54 SW25G36   29.60F
FARGO          CLEAR     72  50  45 SW21G30   29.75R
BUFFALO SD       N/A     69  36  29 W30G41    30.00R
RAPID CITY     CLEAR     66  47  50 N10       30.11R
$$

REGIONAL REPORTS...WYOMING/IDAHO/WASHINGTON

CITY           SKY/WX    TMP DP  RH WIND       PRES   REMARKS
GILLETTE       CLEAR     67  35  30 NW10      30.19R
SHERIDAN       CLEAR     68  35  29 NW15G24   30.17R
BUFFALO WY     CLEAR     65  34  31 NW13      30.24R
CODY           CLEAR     64  28  25 W9G18     30.26R
YELLOWSTONE LA   N/A     51  29  42 VRB7      30.44R
IDAHO FALLS    CLEAR     69  32  25 E8        30.28S
SALMON         SUNNY     68  41  37 NW5       30.23S
BOISE          SUNNY     78  27  15 W6        30.17S
SPOKANE        MOSUNNY   78  36  21 SW10      30.16F
$$

REGIONAL REPORTS...ALBERTA

CITY           SKY/WX    TMP DP  RH WIND       PRES   REMARKS
EDMONTON       MOSUNNY   70  46  43 NW9       29.95R
LETHBRIDGE     MOSUNNY   73  41  31 W21G28    30.05R
MEDICINE HAT   MOCLDY    73  41  31 NW16G23   30.00R
WATERTON GATE    N/A     64  41  42 W13G22      N/A
CARDSTON         N/A     66  39  37 W12G17      N/A
MILK RIVER       N/A     70  39  32 W18G25      N/A
ONEFOUR          N/A     66  43  42 NW13        N/A
$$

REGIONAL REPORTS...SASKATCHEWAN

CITY           SKY/WX    TMP DP  RH WIND       PRES   REMARKS
SWIFT CURRENT  CLOUDY    63  52  67 W7        29.91R
REGINA         LGT RAIN  55  54  94 NW30G39   29.73R
SASKATOON      CLOUDY    63  55  77 NW9       29.79R
CYPRESS HILLS    N/A     61  36  39 NW9G20      N/A
VAL MARIE        N/A     63  50  63 W9          N/A
ROCKGLEN         N/A     55  54  94 W10         N/A
$$


USA.gov is the U.S. government's official web portal to all federal, state and local government web resources and services.